Laramie, WY

3:11 PM MDT on April 26, 2017 (GMT -0600)
Laramie Regional

Weather History for KLAR - April, 2014

Change the Weather History Date:

Monday, April 21, 2014

  Actual Average Record
Temperature  
Mean Temperature 45 °F 39 °F  
Max Temperature 61 °F 53 °F 74 °F (1960)
Min Temperature 29 °F 26 °F 3 °F (1982)
Degree Days  
Heating Degree Days 20 26  
Month to date heating degree days 565 599  
Since 1 July heating degree days 7606 7834  
Cooling Degree Days 0 0  
Month to date cooling degree days 0 0  
Year to date cooling degree days 0 0  
Moisture  
Dew Point 28 °F    
Average Humidity 56    
Maximum Humidity 85    
Minimum Humidity 26    
Precipitation  
Precipitation 0.00 in 0.04 in 2.01 in (1983)
Month to date precipitation 0.13 0.68  
Year to date precipitation 1.86 1.87  
Sea Level Pressure  
Sea Level Pressure 30.06 in    
Wind  
Wind Speed 12 mph (SSE)    
Max Wind Speed 23 mph    
Max Gust Speed 28 mph    
Visibility 10 miles    
Events      
T = Trace of Precipitation, MM = Missing Value Source: NWS Daily Summary

Daily Weather History Graph

Daily Weather History Graph

Search for Another Location

Airport or City:

Trip Planner

Search our weather history database for the weather conditions in past years. The results will help you decide how hot, cold, wet, or windy it might be!

Date:

Astronomy

Apr. 21, 2014 Rise Set
Actual Time 6:13 AM MDT 7:49 PM MDT
Civil Twilight 5:44 AM MDT 8:18 PM MDT
Nautical Twilight 5:09 AM MDT 8:53 PM MDT
Astronomical Twilight 4:32 AM MDT 9:31 PM MDT
Moon 1:22 AM MDT (4/21) 11:42 AM MDT (4/21)
Length of Visible Light 14h 33m
Length of Day
13h 35m
Waning Gibbous, 57% of the Moon is Illuminated
Apr 21
Waning Gibbous
Apr 22
Last Quarter
Apr 29
New
May 6
First Quarter
May 14
Full

Hourly Weather History & Observations

Time (MDT) Temp. Windchill Dew Point Humidity Pressure Visibility Wind Dir Wind Speed Gust Speed Precip Events Conditions
12:53 AM 37.0 °F 30.4 °F 28.9 °F 73% 30.04 in 10.0 mi East 9.2 mph - N/A   Partly Cloudy
1:53 AM 39.0 °F 35.7 °F 28.0 °F 65% 30.06 in 10.0 mi South 4.6 mph - N/A   Clear
2:53 AM 34.0 °F 27.2 °F 27.0 °F 75% 30.10 in 10.0 mi SE 8.1 mph - N/A   Clear
3:53 AM 34.0 °F 29.8 °F 27.0 °F 75% 30.09 in 10.0 mi South 4.6 mph - N/A   Clear
4:53 AM 30.9 °F 24.3 °F 26.1 °F 82% 30.12 in 10.0 mi South 6.9 mph - N/A   Clear
5:53 AM 28.9 °F 20.4 °F 24.1 °F 82% 30.14 in 10.0 mi SSE 9.2 mph - N/A   Clear
6:53 AM 33.1 °F 23.4 °F 25.0 °F 72% 30.14 in 10.0 mi South 13.8 mph - N/A   Clear
7:53 AM 41.0 °F 32.5 °F 28.0 °F 60% 30.14 in 10.0 mi SSE 17.3 mph - N/A   Clear
8:53 AM 46.0 °F 38.8 °F 28.0 °F 50% 30.13 in 10.0 mi SSE 18.4 mph - N/A   Clear
9:53 AM 51.1 °F - 28.9 °F 43% 30.12 in 10.0 mi SSE 16.1 mph - N/A   Clear
10:53 AM 55.0 °F - 28.9 °F 37% 30.09 in 10.0 mi South 10.4 mph 18.4 mph N/A   Clear
11:53 AM 57.0 °F - 28.9 °F 34% 30.07 in 10.0 mi SSE 16.1 mph - N/A   Overcast
12:53 PM 57.9 °F - 28.9 °F 33% 30.06 in 10.0 mi SE 10.4 mph - N/A   Mostly Cloudy
1:53 PM 57.9 °F - 28.0 °F 32% 30.04 in 10.0 mi SE 11.5 mph 21.9 mph N/A   Scattered Clouds
2:53 PM 57.9 °F - 24.1 °F 27% 30.06 in 10.0 mi Variable 5.8 mph - N/A   Overcast
3:53 PM 59.0 °F - 25.0 °F 27% 30.03 in 10.0 mi ENE 4.6 mph - N/A   Mostly Cloudy
4:53 PM 60.1 °F - 30.0 °F 32% 30.03 in 10.0 mi SE 15.0 mph - N/A   Overcast
5:53 PM 57.9 °F - 30.0 °F 35% 30.04 in 10.0 mi SSE 19.6 mph - N/A   Scattered Clouds
6:53 PM 54.0 °F - 30.9 °F 41% 30.04 in 10.0 mi SSE 16.1 mph - N/A   Clear
7:53 PM 48.0 °F - 30.9 °F 52% 30.04 in 10.0 mi SSE 11.5 mph - N/A   Partly Cloudy
8:53 PM 45.0 °F 38.9 °F 30.9 °F 58% 30.03 in 10.0 mi SSE 12.7 mph - N/A   Clear
9:53 PM 45.0 °F 38.2 °F 30.9 °F 58% 30.00 in 10.0 mi SSE 15.0 mph - N/A   Clear
10:53 PM 44.1 °F 37.4 °F 30.9 °F 60% 29.96 in 10.0 mi SSE 13.8 mph - N/A   Clear
11:53 PM 42.1 °F 35.7 °F 30.9 °F 65% 29.95 in 10.0 mi South 11.5 mph - N/A   Clear